Home > Weather > Waldkraiburg > Past weeks

Flag for Germany Past Weather in Waldkraiburg, Bavaria, Germany — Yesterday and Last 2 Weeks

Now
84 °F

Passing clouds.


Feels Like: 85 °F
Forecast: 57 / 84 °F
Wind: 5 mph from North

Location: Munich / Franz Josef Strauss Airport

Current Time: Aug 26, 2016 at 4:03:43 PM

Latest Report: Aug 26, 2016 at 3:20 PM


Visibility: N/A

Pressure: 30.12 "Hg

Humidity: 48%

Dew Point: 63 °F

Location of WaldkraiburgLocation

Past Weather in Waldkraiburg — Graph

°F

Waldkraiburg Temperature Yesterday

Maximum temperature yesterday: 81 °F (at 3:20 PM)
Minimum temperature yesterday: 54 °F (at 2:20 AM)
Average temperature yesterday: 67 °F

High & Low Weather Summary for the Past Weeks

 TemperatureHumidityPressure
High84 °F (Aug 26, 2:50 PM)100% (Aug 12, 3:50 AM)30.42 "Hg (Aug 12, 3:50 AM)
Low50 °F (Aug 16, 5:50 AM)30% (Aug 25, 4:50 PM)29.83 "Hg (Aug 18, 12:50 PM)
Average64 °F76%30.14 "Hg
* Reported Aug 11 2:20 PM — Aug 26 2:50 PM, Waldkraiburg, Weather by CustomWeather, © 2016

Note: Actual official high and low records may vary slightly from our data, if they occured in-between our weather recording intervals... More about our weather records

Advertising

Waldkraiburg Weather History for the Previous 24 Hours

Scroll right to see more
 ConditionsComfort  
Time TempWeatherWind HumidityBarometerVisibility
2:50 PM
Fri, Aug 26
84 °FPassing clouds.5 mph51%30.12 "HgN/A
2:20 PM82 °FPassing clouds.3 mph51%30.12 "HgN/A
1:50 PM82 °FPassing clouds.3 mph51%30.12 "HgN/A
1:20 PM82 °FSunny.2 mph48%30.12 "Hg10 mi
12:50 PM79 °FPassing clouds.3 mph51%30.12 "HgN/A
12:20 PM79 °FSunny.1 mph51%30.12 "Hg10 mi
11:50 AM75 °FSunny.2 mph57%30.12 "Hg10 mi
11:20 AM73 °FSunny.2 mph61%30.12 "Hg10 mi
10:50 AM72 °FSunny.1 mph69%30.12 "Hg10 mi
10:20 AM70 °FPassing clouds.3 mph73%30.12 "HgN/A
9:50 AM68 °FSunny.2 mph78%30.12 "Hg10 mi
9:20 AM66 °FPassing clouds.3 mph78%30.12 "HgN/A
8:50 AM64 °FPassing clouds.3 mph83%30.12 "HgN/A
8:20 AM61 °FSunny.2 mph94%30.12 "Hg10 mi
7:50 AM55 °FFog.1 mph100%30.12 "Hg5 mi
7:20 AM52 °FFog.2 mph100%30.12 "Hg4 mi
6:50 AM50 °FCool.2 mph100%30.12 "Hg4 mi
6:20 AM50 °FCool.1 mph100%30.09 "Hg4 mi
5:50 AM50 °FLight fog.1 mph100%30.09 "Hg4 mi
5:20 AM50 °FLight fog.1 mph100%30.09 "HgN/A
4:50 AM52 °FLight fog.1 mph100%30.09 "HgN/A
4:20 AM52 °FFog.2 mph100%30.09 "HgN/A
3:50 AM54 °FFog.2 mph100%30.09 "HgN/A
3:20 AM52 °FClear.3 mph100%30.09 "Hg10 mi
2:50 AM54 °FPassing clouds.3 mph100%30.09 "HgN/A
2:20 AM55 °FClear.3 mph94%30.09 "Hg10 mi
1:50 AM55 °FClear.3 mph94%30.09 "Hg10 mi
1:20 AM55 °FPassing clouds.3 mph94%30.09 "HgN/A
12:50 AM55 °FClear.2 mph94%30.09 "Hg10 mi
12:20 AM55 °FClear.5 mph94%30.09 "Hg10 mi
11:50 PM
Thu, Aug 25
55 °FClear.3 mph88%30.09 "Hg10 mi
11:20 PM57 °FClear.2 mph82%30.12 "Hg10 mi
10:50 PM57 °FClear.2 mph88%30.09 "Hg10 mi
10:20 PM57 °FClear.No wind88%30.09 "Hg10 mi
9:50 PM61 °FClear.3 mph77%30.12 "Hg10 mi
9:20 PM64 °FClear.2 mph64%30.12 "Hg10 mi
8:50 PM70 °FSunny.5 mph53%30.12 "Hg10 mi
8:20 PM72 °FSunny.5 mph47%30.09 "Hg10 mi
7:50 PM75 °FSunny.6 mph41%30.09 "Hg10 mi
7:20 PM77 °FSunny.8 mph42%30.09 "Hg10 mi
6:20 PM79 °FSunny.9 mph34%30.09 "Hg10 mi
5:50 PM81 °FSunny.13 mph32%30.09 "Hg10 mi
5:20 PM81 °FPassing clouds.12 mph32%30.09 "HgN/A
4:50 PM81 °FPassing clouds.10 mph30%30.12 "HgN/A
4:20 PM81 °FSunny.13 mph32%30.12 "Hg10 mi
Weather by CustomWeather, © 2016

See weather overviewHow to use our weather pages